TimeCDT,TemperatureF,Dew PointF,Humidity,Sea Level PressureIn,VisibilityMPH,Wind Direction,Wind SpeedMPH,Gust SpeedMPH,PrecipitationIn,Events,Conditions,WindDirDegrees,DateUTC
12:53 AM,48.9,45.0,86,30.09,10.0,Calm,Calm,-,N/A,,Clear,0,2013-10-08 05:53:00
1:53 AM,51.1,46.0,83,30.11,10.0,SSW,5.8,-,N/A,,Clear,210,2013-10-08 06:53:00
2:53 AM,50.0,46.0,86,30.11,10.0,SSW,3.5,-,N/A,,Clear,200,2013-10-08 07:53:00
3:53 AM,48.9,45.0,86,30.11,10.0,SSW,5.8,-,N/A,,Clear,200,2013-10-08 08:53:00
4:53 AM,48.0,45.0,89,30.12,10.0,South,3.5,-,N/A,,Clear,190,2013-10-08 09:53:00
5:53 AM,46.9,45.0,93,30.14,10.0,SSW,3.5,-,N/A,,Clear,200,2013-10-08 10:53:00
6:53 AM,46.9,45.0,93,30.14,9.0,South,4.6,-,N/A,,Clear,190,2013-10-08 11:53:00
7:53 AM,50.0,46.0,86,30.15,10.0,South,4.6,-,N/A,,Clear,190,2013-10-08 12:53:00
8:53 AM,54.0,48.9,83,30.17,10.0,South,5.8,-,N/A,,Clear,190,2013-10-08 13:53:00
9:53 AM,60.1,50.0,69,30.17,9.0,SSW,6.9,-,N/A,,Clear,200,2013-10-08 14:53:00
10:53 AM,66.0,48.9,54,30.16,10.0,South,8.1,-,N/A,,Clear,180,2013-10-08 15:53:00
11:53 AM,72.0,48.9,44,30.15,10.0,South,9.2,-,N/A,,Clear,190,2013-10-08 16:53:00
12:53 PM,75.0,44.1,33,30.13,10.0,South,15.0,-,N/A,,Clear,180,2013-10-08 17:53:00
1:53 PM,77.0,42.1,29,30.10,10.0,SSE,12.7,24.2,N/A,,Clear,160,2013-10-08 18:53:00
2:53 PM,78.1,43.0,29,30.09,10.0,South,11.5,-,N/A,,Clear,170,2013-10-08 19:53:00
3:53 PM,77.0,42.1,29,30.08,10.0,South,10.4,-,N/A,,Clear,190,2013-10-08 20:53:00
4:53 PM,75.9,43.0,31,30.08,10.0,South,9.2,-,N/A,,Clear,180,2013-10-08 21:53:00
5:53 PM,72.0,46.0,40,30.09,10.0,South,8.1,-,N/A,,Clear,180,2013-10-08 22:53:00
6:53 PM,66.0,46.0,48,30.10,10.0,SSE,6.9,-,N/A,,Clear,160,2013-10-08 23:53:00
7:53 PM,61.0,46.9,60,30.10,10.0,SSE,4.6,-,N/A,,Clear,160,2013-10-09 00:53:00
8:53 PM,57.9,48.0,70,30.11,10.0,South,6.9,-,N/A,,Clear,170,2013-10-09 01:53:00
9:53 PM,62.1,48.0,60,30.10,10.0,South,9.2,-,N/A,,Clear,190,2013-10-09 02:53:00
10:53 PM,61.0,46.9,60,30.11,10.0,South,8.1,-,N/A,,Clear,190,2013-10-09 03:53:00
11:53 PM,59.0,48.0,67,30.11,10.0,South,9.2,-,N/A,,Clear,190,2013-10-09 04:53:00